Date String (YYYY-MM-DD hh:mm:ss) UTC,Instrument flags,absolute air pressure of the measurement (hPa),sample flow rate (lpm),inlet stack bypass flow (lpm),air temperature of the measurement (°C),ambient temperature measured by the external sensor (°C),aerosol sample conditioner tube jacket temperature (°C),OPC LED temperature (°C),internal box temperature (°C),relative humidity of the measurement (%),span deviation,mass concentration of particles derived from Lorenz-Mie calculation of OPC scattering (μg/m³),mass concentration of particles derived from Lorenz-Mie calculation of OPC scattering (μg/m³),mass concentration of particles derived from Lorenz-Mie calculation of OPC scattering (μg/m³)
DateTimeUTC,F1_M11,P_M11,Q1_M11,Q2_M11,T1_M11,T2_M11,T3_M11,T4_M11,T5_M11,U1_M11,ZSPAN_M11,X2_M11,X0_M11,X1_M11
2023-07-27 04:00:00,SystemResetWarning,0837.2,4.99,000.00,029.1,027.1,000.0,037.4,030.8,30.6,0000.0,0004.68,0014.07,0003.37
2023-07-27 04:01:00,SystemResetWarning,0837.2,5.01,000.00,029.1,025.7,000.0,037.3,030.6,31.1,0000.0,0004.74,0014.53,0003.37
2023-07-27 04:02:00,SystemResetWarning,0837.2,5.00,000.00,029.0,025.4,000.0,037.2,030.4,32.0,0000.0,0004.76,0013.73,0003.38
2023-07-27 04:03:00,SystemResetWarning,0837.3,5.01,000.00,028.9,025.6,000.0,037.3,030.3,32.3,0000.0,0004.73,0013.69,0003.38
2023-07-27 04:04:00,SystemResetWarning,0837.4,4.99,000.00,028.9,026.0,000.0,037.3,030.3,32.6,0000.0,0004.70,0014.63,0003.36
2023-07-27 04:05:00,SystemResetWarning,0837.5,4.99,000.00,028.9,026.4,000.0,037.3,030.4,33.9,0000.0,0004.72,0015.47,0003.37
2023-07-27 04:06:00,SystemResetWarning,0837.5,5.01,000.00,028.9,026.8,000.0,037.3,030.5,33.8,0000.0,0004.69,0015.74,0003.36
2023-07-27 04:07:00,SystemResetWarning,0837.6,5.01,000.00,028.9,027.1,000.0,037.4,030.6,32.0,0000.0,0004.70,0016.64,0003.36
2023-07-27 04:08:00,SystemResetWarning,0837.6,5.00,000.00,029.0,027.3,000.0,037.4,030.6,32.6,0000.0,0004.72,0016.97,0003.37
2023-07-27 04:09:00,SystemResetWarning,0837.7,4.97,000.00,029.0,027.5,000.0,037.4,030.7,34.3,0000.0,0004.78,0017.29,0003.36
2023-07-27 04:10:00,SystemResetWarning,0837.7,5.02,000.00,029.1,027.7,000.0,037.4,030.8,35.7,0000.0,0004.79,0017.51,0003.35
2023-07-27 04:11:00,SystemResetWarning,0837.7,5.01,000.00,029.4,027.8,000.0,037.5,031.0,35.5,0000.0,0004.76,0017.39,0003.34
2023-07-27 04:12:00,SystemResetWarning,0837.8,4.99,000.00,029.8,028.0,000.0,037.5,031.1,34.5,0000.0,0004.68,0017.14,0003.33
2023-07-27 04:13:00,SystemResetWarning,0837.8,4.99,000.00,030.0,028.1,000.0,037.6,031.2,33.5,0000.0,0004.62,0016.96,0003.33
2023-07-27 04:14:00,SystemResetWarning,0837.6,5.00,000.00,030.2,027.0,000.0,037.5,031.1,33.7,0000.0,0004.58,0016.73,0003.33
2023-07-27 04:15:00,SystemResetWarning,0837.6,5.00,000.00,030.2,025.6,000.0,037.5,030.9,33.0,0000.0,0004.60,0016.64,0003.32
2023-07-27 04:16:00,SystemResetWarning,0837.5,5.00,000.00,030.2,025.3,000.0,037.6,030.6,33.5,0000.0,0004.59,0015.48,0003.31
2023-07-27 04:17:00,SystemResetWarning,0837.4,5.01,000.00,030.1,025.6,000.0,037.7,030.5,32.9,0000.0,0004.57,0014.72,0003.31
2023-07-27 04:18:00,SystemResetWarning,0837.3,5.00,000.00,030.1,026.0,000.0,037.8,030.6,33.2,0000.0,0004.60,0013.55,0003.31
2023-07-27 04:19:00,SystemResetWarning,0837.2,4.98,000.00,030.1,026.4,000.0,037.9,030.7,33.2,0000.0,0004.60,0013.34,0003.31
2023-07-27 04:20:00,SystemResetWarning,0837.3,5.00,000.00,030.1,026.8,000.0,038.0,030.8,33.1,0000.0,0004.56,0013.01,0003.32
2023-07-27 04:21:00,SystemResetWarning,0837.2,5.00,000.00,030.1,027.1,000.0,038.0,030.9,32.9,0000.0,0004.46,0012.14,0003.32
2023-07-27 04:22:00,SystemResetWarning,0837.2,5.00,000.00,030.1,027.4,000.0,038.1,030.9,33.2,0000.0,0004.42,0011.45,0003.35
2023-07-27 04:23:00,SystemResetWarning,0837.2,5.01,000.00,030.1,027.6,000.0,038.1,031.0,33.0,0000.0,0004.40,0011.02,0003.35
2023-07-27 04:24:00,SystemResetWarning,0837.2,5.01,000.00,030.2,027.8,000.0,038.1,031.0,33.2,0000.0,0004.39,0011.24,0003.34
2023-07-27 04:25:00,SystemResetWarning,0837.2,5.00,000.00,030.2,028.0,000.0,038.2,031.1,33.0,0000.0,0004.40,0012.03,0003.35
2023-07-27 04:26:00,SystemResetWarning,0837.2,4.98,000.00,030.2,027.4,000.0,038.2,031.1,32.6,0000.0,0004.38,0011.86,0003.36
2023-07-27 04:27:00,SystemResetWarning,0837.2,5.01,000.00,030.2,025.9,000.0,038.1,030.8,32.4,0000.0,0004.35,0011.29,0003.37
2023-07-27 04:28:00,SystemResetWarning,0837.0,5.01,000.00,030.1,025.3,000.0,038.0,030.6,32.6,0000.0,0004.35,0011.25,0003.38
2023-07-27 04:29:00,SystemResetWarning,0836.9,5.01,000.00,029.9,025.5,000.0,038.0,030.5,33.2,0000.0,0004.36,0011.21,0003.40
2023-07-27 04:30:00,SystemResetWarning,0836.9,4.99,000.00,029.9,025.9,000.0,038.1,030.5,34.1,0000.0,0004.33,0011.10,0003.40
2023-07-27 04:31:00,SystemResetWarning,0836.8,4.99,000.00,029.8,026.3,000.0,038.1,030.6,34.7,0000.0,0004.30,0011.02,0003.39
2023-07-27 04:32:00,SystemResetWarning,0836.8,5.00,000.00,029.8,026.7,000.0,038.1,030.7,34.3,0000.0,0004.33,0010.58,0003.39
2023-07-27 04:33:00,SystemResetWarning,0836.6,5.01,000.00,029.8,027.0,000.0,038.1,030.8,33.7,0000.0,0004.32,0010.62,0003.37
2023-07-27 04:34:00,SystemResetWarning,0836.6,5.01,000.00,029.8,027.3,000.0,038.1,030.9,33.3,0000.0,0004.30,0010.43,0003.37
2023-07-27 04:35:00,SystemResetWarning,0836.6,4.98,000.00,029.9,027.5,000.0,038.1,031.0,33.0,0000.0,0004.31,0009.95,0003.38
2023-07-27 04:36:00,SystemResetWarning,0836.6,4.99,000.00,029.9,027.7,000.0,038.1,031.0,32.8,0000.0,0004.34,0009.22,0003.38
2023-07-27 04:37:00,SystemResetWarning,0836.6,5.01,000.00,029.9,027.9,000.0,038.1,031.1,32.4,0000.0,0004.37,0009.03,0003.39
2023-07-27 04:38:00,SystemResetWarning,0836.5,5.01,000.00,029.9,028.0,000.0,038.2,031.1,32.1,0000.0,0004.43,0009.05,0003.40
2023-07-27 04:39:00,SystemResetWarning,0836.4,4.99,000.00,029.9,027.2,000.0,038.1,031.0,31.9,0000.0,0004.44,0009.08,0003.39
2023-07-27 04:40:00,SystemResetWarning,0836.3,5.00,000.00,029.9,025.7,000.0,038.0,030.8,32.0,0000.0,0004.42,0009.01,0003.38
2023-07-27 04:41:00,SystemResetWarning,0836.2,5.01,000.00,029.8,025.3,000.0,037.9,030.6,32.1,0000.0,0004.44,0009.05,0003.38
2023-07-27 04:42:00,SystemResetWarning,0836.2,5.00,000.00,029.6,025.6,000.0,037.9,030.5,32.1,0000.0,0004.44,0008.68,0003.38
2023-07-27 04:43:00,SystemResetWarning,0836.2,5.00,000.00,029.6,026.0,000.0,038.0,030.5,32.1,0000.0,0004.41,0008.61,0003.37
2023-07-27 04:44:00,SystemResetWarning,0836.1,5.00,000.00,029.6,026.4,000.0,038.0,030.6,32.1,0000.0,0004.38,0008.51,0003.37
2023-07-27 04:45:00,SystemResetWarning,0836.1,5.01,000.00,029.6,026.7,000.0,038.0,030.7,32.3,0000.0,0004.38,0008.65,0003.36
2023-07-27 04:46:00,SystemResetWarning,0836.0,5.00,000.00,029.6,027.1,000.0,038.0,030.8,32.1,0000.0,0004.44,0008.83,0003.37
2023-07-27 04:47:00,SystemResetWarning,0835.9,5.00,000.00,029.6,027.3,000.0,038.0,030.9,32.4,0000.0,0004.42,0008.78,0003.36
2023-07-27 04:48:00,SystemResetWarning,0835.9,5.00,000.00,029.6,027.6,000.0,038.0,030.9,32.4,0000.0,0004.35,0008.57,0003.36
2023-07-27 04:49:00,SystemResetWarning,0835.8,4.99,000.00,029.6,027.8,000.0,038.0,031.0,32.8,0000.0,0004.30,0008.66,0003.36
2023-07-27 04:50:00,SystemResetWarning,0835.7,4.99,000.00,029.7,027.9,000.0,038.0,031.0,33.5,0000.0,0004.29,0009.02,0003.36
2023-07-27 04:51:00,SystemResetWarning,0835.6,5.00,000.00,029.7,028.0,000.0,038.0,031.1,35.3,0000.0,0004.25,0009.19,0003.36
2023-07-27 04:52:00,SystemResetWarning,0835.6,4.99,000.00,029.8,026.8,000.0,037.9,031.0,35.0,0000.0,0004.19,0009.33,0003.36
2023-07-27 04:53:00,SystemResetWarning,0835.7,5.02,000.00,030.0,025.6,000.0,037.8,030.9,35.2,0000.0,0004.16,0009.46,0003.35
2023-07-27 04:54:00,SystemResetWarning,0835.9,4.98,000.00,030.1,025.4,000.0,037.8,030.7,33.6,0000.0,0004.18,0009.98,0003.35
2023-07-27 04:55:00,SystemResetWarning,0836.0,4.99,000.00,030.2,025.7,000.0,037.9,030.7,34.8,0000.0,0004.21,0009.97,0003.36
2023-07-27 04:56:00,SystemResetWarning,0836.0,5.02,000.00,030.3,026.1,000.0,037.9,030.7,35.1,0000.0,0004.25,0009.99,0003.35
2023-07-27 04:57:00,SystemResetWarning,0836.1,4.99,000.00,030.5,026.4,000.0,038.0,030.9,34.6,0000.0,0004.24,0010.02,0003.35
2023-07-27 04:58:00,SystemResetWarning,0836.1,4.99,000.00,030.7,026.8,000.0,038.1,031.0,33.3,0000.0,0004.21,0009.99,0003.34
2023-07-27 04:59:00,SystemResetWarning,0836.1,5.03,000.00,030.8,027.1,000.0,038.2,031.1,33.1,0000.0,0004.23,0010.00,0003.33
